Regional Weather Roundup
Issued by NWS

Home | Current Version | Previous Version | Text Only | Print | Product List | Glossary Off
Versions: 1 2 3 4 5 6 7 8 9 10 11 12 13 14 15 16 17 18 19 20 21 22 23 24 25 26 27 28 29 30 31 32 33 34 35 36 37 38 39 40 41 42 43 44 45 46 47 48 49 50

000
ASUS45 KABQ 231101
RWRNM
NEW MEXICO REGIONAL WEATHER ROUNDUP
NATIONAL WEATHER SERVICE ALBUQUERQUE NM
500 AM MDT MON OCT 23 2017

NOTE: "FAIR" MEANS FEW OR NO CLOUDS BELOW 12,000 FEET AGL WITH NO
       SIGNIFICANT WEATHER OR OBSTRUCTIONS TO VISION.

      THIS PRODUCT IS RELEASED AS TWO VERSIONS.  ONE VERSION NEAR
      THE TOP OF THE HOUR CONTAINING PRELIMINARY DATA FROM ALBUQUERQUE
      AND OTHER STATIONS.  A FINAL VERSION WITH ADDITIONAL DATA IS
      ISSUED ABOUT 10 MINUTES AFTER THE HOUR.

NMZ501-503-504-510>518-231200-
NORTHWEST PLATEAU/NORTHCENTRAL MOUNTAINS

CITY           SKY/WX    TMP DP  RH WIND       PRES   REMARKS
FARMINGTON     FAIR      39  22  50 W5        30.38S
LOS ALAMOS     FAIR      47  19  34 CALM      30.42F
SANTA FE       FAIR      45  23  42 CALM      30.38R
TAOS           FAIR      31  20  63 N5        30.44F WCI  26
ANGEL FIRE     FAIR      25  21  85 CALM      30.47F

$$
NMZ402-403-502-505>509-231200-
WESTCENTRAL MOUNTAINS/SOUTHWEST MOUNTAINS

CITY           SKY/WX    TMP DP  RH WIND       PRES   REMARKS
GALLUP         FAIR      31  17  56 NE5       30.48R WCI  26
GRANTS         FAIR      32  22  65 W13G20    30.48R WCI  23
SILVER CITY    FAIR      49  21  33 NW10      30.33S

$$
NMZ407-409-411-412-231200-
SOUTHERN DESERTS

CITY           SKY/WX    TMP DP  RH WIND       PRES   REMARKS
DEMING         FAIR      43  24  47 N3        30.28S
LAS CRUCES     FAIR      53  24  32 NW8       30.28F
HOLLOMAN AFB   FAIR      43  31  63 NW9       30.26F
ALAMOGORDO     FAIR      43  32  65 CALM      30.26R
T OR C         FAIR      51  23  33 NW8       30.31S

$$
NMZ519>523-231200-
CENTRAL VALLEYS/CENTRAL HIGHLANDS

CITY           SKY/WX    TMP DP  RH WIND       PRES   REMARKS
ALBUQUERQUE    FAIR      51  25  36 N8        30.37R
MORIARTY ARPT  FAIR      56  19  24 N10       30.36R
CLINES CORNERS FAIR      46  19  34 NW18      30.35F
BELEN          FAIR      41  25  52 CALM      30.36R
SOCORRO        NOT AVBL

$$
NMZ524>526-539-540-231200-
SOUTHCENTRAL MOUNTAINS

CITY           SKY/WX    TMP DP  RH WIND       PRES   REMARKS
RUIDOSO        FAIR      55  14  19 NW6       30.36S

$$
NMZ527>531-231200-
NORTHEAST HIGHLANDS/NORTHEAST PLAINS

CITY           SKY/WX    TMP DP  RH WIND       PRES   REMARKS
LAS VEGAS      FAIR      54  21  27 VRB6      30.31R
RATON          FAIR      39  28  64 NE9       30.26R WCI  33
CLAYTON        FAIR      57  27  31 NW12      30.17R

$$
NMZ532>537-231200-
EASTCENTRAL PLAINS

CITY           SKY/WX    TMP DP  RH WIND       PRES   REMARKS
SANTA ROSA     FAIR      57  24  27 W9        30.18S
TUCUMCARI      FAIR      47  34  60 W9        30.13R
CANNON AFB     FAIR      49  34  56 NW10      30.14S
CLOVIS AIRPORT   N/A     52  33  48 NW8       30.13S

$$
NMZ028-029-538-231200-
SOUTHEAST PLAINS

CITY           SKY/WX    TMP DP  RH WIND       PRES   REMARKS
ROSWELL        FAIR      42  37  82 CALM      30.16S
ARTESIA        FAIR      45  36  70 SW8       30.16S
CARLSBAD       FAIR      43  41  93 NW6       30.14S
HOBBS          FAIR      48  37  66 W10       30.15S


$$




USA.gov is the U.S. government's official web portal to all federal, state and local government web resources and services.